FW2439 Weather Reports


Display with metric or nautical units.
time (UTC)temp
F
wind
direction
speed
MPH
gust
MPH
rain 1hr
in
rain 24hr
in
rain mn
in
humidity
%
barometer
mb
20260507124506 50 53 1.0 4.0 0.00 0.00 0.00 100 1017.5
20260507123007 49 299 0.0 1.0 0.00 0.00 0.00 100 1017.5
20260507121505 49 234 0.0 2.0 0.00 0.00 0.00 100 1017.4
20260507120005 48 178 0.0 0.0 0.00 0.00 0.00 100 1017.3
20260507114614 48 178 0.0 1.0 0.00 0.00 0.00 100 1016.8
20260507113100 47 178 0.0 0.0 0.00 0.00 0.00 100 1016.8
20260507111607 47 178 0.0 0.0 0.00 0.00 0.00 100 1016.8
20260507110100 48 178 0.0 0.0 0.00 0.00 0.00 100 1016.7
20260507104553 48 178 0.0 0.0 0.00 0.00 0.00 100 1016.6
20260507103055 48 178 0.0 1.0 0.00 0.00 0.00 100 1016.5
20260507101549 48 289 0.0 0.0 0.00 0.00 0.00 100 1016.3
20260507100050 48 14 0.0 0.0 0.00 0.00 0.00 100 1016.1
20260507094557 48 14 0.0 0.0 0.00 0.00 0.00 100 1016.0
20260507093046 49 14 0.0 0.0 0.00 0.00 0.00 100 1015.8
20260507091544 49 14 0.0 0.0 0.00 0.00 0.00 100 1015.9
20260507090044 49 14 0.0 0.0 0.00 0.00 0.00 100 1015.7
20260507084543 49 14 0.0 0.0 0.00 0.00 0.00 100 1015.7
20260507083041 49 15 0.0 0.0 0.00 0.00 0.00 100 1016.1
20260507081542 50 14 0.0 0.0 0.00 0.00 0.00 100 1015.8
20260507080039 50 14 0.0 0.0 0.00 0.00 0.00 100 1015.7
20260507074536 51 14 0.0 0.0 0.00 0.00 0.00 100 1016.0
20260507073034 51 14 0.0 0.0 0.00 0.00 0.00 100 1015.8
20260507071536 52 14 0.0 0.0 0.00 0.00 0.00 100 1016.0
20260507070043 51 14 0.0 0.0 0.00 0.00 0.00 100 1016.4
20260507064535 51 14 0.0 0.0 0.00 0.00 0.00 100 1015.7
20260507063035 51 14 0.0 0.0 0.00 0.00 0.00 100 1015.6
20260507061531 51 15 0.0 0.0 0.00 0.00 0.00 100 1015.8
20260507060030 51 14 0.0 0.0 0.00 0.00 0.00 100 1015.8
20260507054529 51 15 0.0 3.0 0.00 0.00 0.00 100 1015.8
20260507053028 51 306 0.0 1.0 0.00 0.00 0.00 100 1015.7
20260507051526 51 306 0.0 1.0 0.00 0.00 0.00 100 1015.9
20260507050029 52 316 0.0 2.0 0.00 0.00 0.00 100 1015.8
20260507044522 52 270 0.0 0.0 0.00 0.00 0.00 100 1015.5
20260507043022 52 241 0.0 0.0 0.00 0.00 0.00 100 1015.9
20260507041521 52 241 0.0 0.0 0.00 0.00 0.00 100 1016.2
20260507040020 52 241 0.0 0.0 0.00 0.00 0.00 100 1016.5
20260507034521 52 241 0.0 0.0 0.00 0.00 0.00 100 1016.5
20260507033026 52 241 0.0 0.0 0.00 0.00 0.00 100 1016.3
20260507031519 52 241 0.0 0.0 0.00 0.00 0.00 100 1016.3
20260507030015 52 241 0.0 1.0 0.00 0.00 0.00 99 1015.9
20260507024514 52 241 0.0 1.0 0.00 0.00 0.00 99 1015.9
20260507023014 52 240 0.0 1.0 0.00 0.00 0.00 99 1015.6
20260507021514 52 241 0.0 2.0 0.00 0.00 0.00 99 1015.7
20260507020013 52 289 1.0 3.0 0.00 0.00 0.00 99 1014.8
20260507014512 52 295 0.0 0.0 0.00 0.00 0.00 99 1015.3
20260507013016 52 307 0.0 2.0 0.00 0.00 0.00 99 1014.9
20260507011525 52 310 0.0 3.0 0.00 0.00 0.00 99 1015.2
20260507010011 52 226 0.0 1.0 0.00 0.00 0.00 99 1015.3
20260507004510 52 226 0.0 1.0 0.00 0.00 0.00 99 1015.2
20260507003010 53 205 0.0 2.0 0.00 0.00 0.00 99 1015.1
20260507001511 53 242 0.0 1.0 0.00 0.00 0.00 99 1015.8
20260507000007 53 302 0.0 1.0 0.00 0.00 0.00 99 1015.7
20260506234507 53 301 0.0 1.0 0.00 0.00 0.00 99 1015.0
20260506233007 53 301 0.0 3.0 0.00 0.00 0.00 99 1014.8
20260506231506 53 290 0.0 3.0 0.00 0.00 0.00 99 1014.3
20260506230007 53 290 0.0 4.0 0.00 0.00 0.00 99 1014.2
20260506224505 53 313 0.0 2.0 0.00 0.00 0.00 99 1013.9
20260506223004 54 289 0.0 2.0 0.00 0.00 0.00 99 1013.9
20260506221504 54 290 0.0 2.0 0.00 0.00 0.00 99 1014.1
20260506220004 54 120 1.0 2.0 0.00 0.00 0.00 99 1013.7
20260506214502 54 120 0.0 3.0 0.00 0.00 0.00 99 1014.7
20260506213004 54 243 0.0 2.0 0.00 0.00 0.00 99 1015.1
20260506211501 54 305 0.0 1.0 0.00 0.00 0.00 99 1014.1
20260506210000 53 355 0.0 2.0 0.00 0.00 0.00 99 1014.8
20260506204601 53 242 0.0 2.0 0.00 0.00 0.00 99 1014.7
20260506203100 53 311 0.0 3.0 0.00 0.00 0.00 99 1015.3
20260506201600 53 285 0.0 2.0 0.00 0.00 0.00 99 1014.9
20260506200104 53 309 0.0 3.0 0.00 0.00 0.00 99 1014.7
20260506194559 53 339 1.0 4.0 0.00 0.00 0.00 99 1015.2
20260506193059 53 295 0.0 2.0 0.00 0.00 0.00 99 1015.5
20260506191558 53 304 0.0 5.0 0.00 0.00 0.00 99 1015.1
20260506184556 53 305 1.0 3.0 0.00 0.00 0.00 99 1014.6
20260506183056 53 116 0.0 4.0 0.00 0.00 0.00 99 1015.0
20260506181558 52 218 0.0 3.0 0.00 0.00 0.00 99 1014.9
20260506180055 52 246 0.0 1.0 0.00 0.00 0.00 99 1014.7
20260506174556 52 259 0.0 1.0 0.00 0.00 0.00 99 1015.2
20260506173124 51 242 0.0 2.0 0.00 0.00 0.00 99 1015.4
20260506171559 52 319 0.0 3.0 0.00 0.00 0.00 99 1014.9
20260506170050 52 315 1.0 3.0 0.00 0.00 0.00 99 1014.7
20260506164556 52 62 0.0 5.0 0.00 0.00 0.00 99 1014.7
20260506163058 53 1 0.0 4.0 0.00 0.00 0.00 99 1014.3
20260506161603 52 329 0.0 4.0 0.00 0.00 0.00 99 1014.5
20260506160047 52 234 0.0 2.0 0.00 0.00 0.00 99 1013.7
20260506154551 52 107 0.0 3.0 0.00 0.00 0.00 99 1014.4
20260506153048 52 326 0.0 3.0 0.00 0.00 0.00 99 1014.4
20260506151548 52 229 0.0 2.0 0.00 0.00 0.00 99 1013.8
20260506150045 52 273 1.0 3.0 0.00 0.00 0.00 99 1014.9
20260506144544 52 181 0.0 2.0 0.00 0.00 0.00 99 1014.4
20260506143045 52 266 0.0 2.0 0.00 0.00 0.00 99 1014.2
20260506141540 52 248 0.0 4.0 0.00 0.00 0.00 99 1014.1
20260506140041 52 309 0.0 4.0 0.00 0.00 0.00 99 1013.9
20260506134538 53 303 0.0 3.0 0.00 0.00 0.00 99 1013.6
20260506133038 53 252 0.0 2.0 0.00 0.00 0.00 99 1013.4
20260506131545 53 267 0.0 3.0 0.00 0.00 0.00 99 1013.0
20260506130044 53 69 0.0 1.0 0.00 0.00 0.00 99 1012.6